This demonstration page uses our WeatherBlox Daily Observations layout. Learn more.

Left ArrowRight Arrow

41.12389, -100.76542

Hourly Observations for July 28, 2022

Temp ( °F °C ) Dew Point ( °F °C ) Humidity (%) Winds ( mph kmh ) Pressure ( in mb ) Visibility ( mi km ) Precip ( " mm )
12:11 am 00:11 Mostly Cloudy with Thunderstorms 64 17.8 60 15.6 87 87 SSE 9 15 30.03 1017 10 16 0.27 6.86
12:16 am 00:16 Mostly Cloudy with Thunderstorms 64 17.8 61 16.1 90 90 SE 10 17 30.01 1016 10 16 0.27 6.86
12:24 am 00:24 Partly Cloudy 63 17.2 60 15.6 90 90 SE 8 13 30.01 1016 10 16 0.27 6.86
12:53 am 00:53 Clear 63 17.2 60 15.6 90 90 SE 6 9 30.04 1017 10 16 0.27 6.86
1:53 am 01:53 Clear 63 17.2 60 15.6 90 90 Calm 30.00 1016 10 16 0.00 0.00
2:53 am 02:53 Mostly Clear 63 17.2 60 15.6 90 90 Calm 30.01 1016 10 16 0.00 0.00
3:53 am 03:53 Clear 63 17.2 60 15.6 90 90 NW 5 7 30.02 1017 10 16 0.00 0.00
4:53 am 04:53 Cloudy 65 18.3 61 16.1 87 87 N 6 9 30.01 1016 10 16 0.00 0.00
5:53 am 05:53 Cloudy 65 18.3 61 16.1 87 87 NE 5 7 30.04 1017 10 16 0.00 0.00
6:03 am 06:03 Cloudy 65 18.3 61 16.1 87 87 NNE 6 9 30.04 1017 10 16 0.00 0.00
6:17 am 06:17 Cloudy 65 18.3 61 16.1 87 87 ENE 7 11 30.04 1017 10 16 0.00 0.00
6:53 am 06:53 Cloudy 65 18.3 61 16.1 87 87 Calm 30.05 1018 10 16 0.00 0.00
7:53 am 07:53 Mostly Sunny 65 18.3 61 16.1 87 87 Calm 30.09 1019 10 16 0.00 0.00
8:53 am 08:53 Mostly Cloudy 67 19.4 60 15.6 79 79 NNE 6 9 30.11 1020 10 16 0.00 0.00
9:53 am 09:53 Mostly Sunny 69 20.6 58 14.4 68 68 NE 8 13 30.11 1020 10 16 0.00 0.00
10:53 am 10:53 Mostly Cloudy 72 22.2 55 12.8 55 55 NE 9 15 30.11 1020 10 16 0.00 0.00
11:53 am 11:53 Mostly Sunny 77 25 53 11.7 43 43 ENE 8 13 30.12 1020 10 16 0.00 0.00
12:53 pm 12:53 Mostly Cloudy 77 25 52 11.1 42 42 NE 10 17 30.10 1019 10 16 0.00 0.00
1:53 pm 13:53 Mostly Cloudy 78 25.6 54 12.2 43 43 NNE 7 11 30.11 1020 10 16 0.00 0.00
2:53 pm 14:53 Mostly Cloudy 79 26.1 55 12.8 44 44 ENE 5 7 30.10 1019 10 16 0.00 0.00
3:53 pm 15:53 Mostly Cloudy 78 25.6 55 12.8 45 45 Calm 30.08 1019 10 16 0.00 0.00
4:53 pm 16:53 Mostly Sunny 78 25.6 56 13.3 47 47 SSW 3 6 30.07 1018 10 16 0.00 0.00
5:53 pm 17:53 Partly Cloudy 78 25.6 56 13.3 47 47 VRB 5 7 30.06 1018 10 16 0.00 0.00
6:53 pm 18:53 Mostly Sunny 79 26.1 56 13.3 45 45 Calm 30.05 1018 10 16 0.00 0.00
7:53 pm 19:53 Mostly Cloudy 75 23.9 60 15.6 60 60 ESE 6 9 30.07 1018 10 16 0.00 0.00
8:53 pm 20:53 Cloudy 72 22.2 61 16.1 68 68 SE 5 7 30.06 1018 10 16 0.00 0.00
9:53 pm 21:53 Partly Cloudy 68 20 61 16.1 78 78 ESE 3 6 30.08 1019 10 16 0.00 0.00
10:53 pm 22:53 Clear 66 18.9 60 15.6 81 81 ESE 3 6 30.09 1019 10 16 0.00 0.00
11:53 pm 23:53 Clear 64 17.8 60 15.6 87 87 E 3 6 30.08 1019 10 16 0.00 0.00

Powered by AerisWeather